STARLINK-31134 (58621 NORAD) Tracking and Keplerian Element Data

This shows tracking and keplerian element data for the satellite.

Feedback or suggestion? Click here.




ElementValue
Catalog58621
NameSTARLINK-31134
Epoch Orbit451
Epoch Day13.25002315
Epoch Year2024
RAAN183.7393
Inclination43.0012
Eccentricity0.0001594
Argument of Perigee262.6152
Mean Anonmoly3.3028
Mean Motion15.52639332
Decay Rate-0.01741648
L11 58621U 23203D 24013.25002315 -.01741648 00000+0 -30931-1 0 9999
L22 58621 43.0012 183.7393 0001594 262.6152 3.3028 15.52639332 4516



Live tracking and technical data element details for STARLINK-31134 (NORAD 58621). STARLINK-31134 can be tracked NOW for your location showing map with azimuth and elevation plus other details from your city location.







IsCatalogInMostPopularTable: catalog: 58621, numindb: 23
Update: records affected: 1



GetName: 58621 STARLINK-31134

Hit Count: updated at: Wed, 17 Apr 2024 02:37:18 GMT